Waarnemingen

Advertentie
Mijn weer
Brest, Frankrijk (7110): temperatuur & dauwpunt: 10.07.2018 16:00:00 - 16.07.2018 16:00:00 (CEST)Brest, Frankrijk (7110): temperatuur 5cm: 10.07.2018 16:00:00 - 16.07.2018 16:00:00 (CEST)Brest, Frankrijk (7110): temperatuur -20cm & temperatuur -100cm: 10.07.2018 16:00:00 - 16.07.2018 16:00:00 (CEST)Brest, Frankrijk (7110): windsnelheid & windstoten: 10.07.2018 16:00:00 - 16.07.2018 16:00:00 (CEST)Brest, Frankrijk (7110): windrichting: 10.07.2018 16:00:00 - 16.07.2018 16:00:00 (CEST)Brest, Frankrijk (7110): luchtdruk: 10.07.2018 16:00:00 - 16.07.2018 16:00:00 (CEST)Brest, Frankrijk (7110): zicht: 10.07.2018 16:00:00 - 16.07.2018 16:00:00 (CEST)Brest, Frankrijk (7110): Zonneschijnduur: 10.07.2018 16:00:00 - 16.07.2018 16:00:00 (CEST)Brest, Frankrijk (7110): neerslag: 10.07.2018 16:00:00 - 16.07.2018 16:00:00 (CEST)
Datum & Tijd tt [°C] td [°C] tt 5cm [°C] tt -20cm [°C] tt -100cm [°C] ff [km/u] ff [kn] fx [km/u] fx [kn] dd ppp [hPa] vv [km] sd [min] rr [mm]
16.07.2018 16:00:00 20,4 16,0 21,8 19,9 17,0 18 10 31 17 NNW 1016,4 26 7 0,0
16.07.2018 15:00:00 21,9 13,5 25,3 19,8 17,0 16 9 32 17 W 1016,3 38 38 0,0
16.07.2018 14:00:00 22,1 14,7 24,5 19,7 17,0 21 11 32 17 ZW 1016,4 32 17 0,0
16.07.2018 13:00:00 21,5 14,9 25,1 19,6 17,0 14 8 25 14 W 1016,3 43 31 0,0
16.07.2018 12:00:00 21,2 15,5 24,7 19,6 17,0 15 8 22 12 W 1016,2 50 31 0,0
16.07.2018 11:00:00 20,1 14,0 23,4 19,6 17,0 13 7 23 12 WNW 1016,2 49 2 0,0
16.07.2018 10:00:00 19,9 15,1 19,4 19,7 17,0 13 7 23 13 W 1016,0 39 12 0,0
16.07.2018 09:00:00 17,7 16,7 19,1 19,8 17,0 5 3 12 6 WZW 1015,9 6 12 0,0
16.07.2018 08:00:00 16,6 16,4 11,7 20,0 17,0 4 2 10 6 WZW 1015,8 3,9 2 0,0
16.07.2018 07:00:00 12,4 11,6 7,3 20,2 17,0 6 4 10 5 ZW 1015,9 7 0 0,0
16.07.2018 06:00:00 12,2 10,8 7,8 20,3 17,0 5 3 8 5 ZZW 1015,9 20 0 0,0
16.07.2018 05:00:00 12,7 10,9 7,0 20,6 17,0 4 2 10 5 ZZW 1016,1 20 0 0,0
16.07.2018 04:00:00 13,0 10,9 7,0 20,7 17,0 7 4 10 6 WNW 1016,1 28 0 0,0
16.07.2018 03:00:00 13,2 11,3 7,4 20,9 17,0 6 3 10 6 W 1016,3 46 0 0,0
16.07.2018 02:00:00 12,7 11,6 7,8 21,1 17,0 7 4 8 4 W 1016,5 42 0 0,0
16.07.2018 01:00:00 13,6 11,6 8,7 21,2 17,0 0 0 4 2 N 1016,5 46 0 0,0
16.07.2018 00:00:00 14,9 11,7 9,5 21,4 17,0 4 2 6 4 OZO 1016,6 39 0 0,0
15.07.2018 23:00:00 16,8 11,3 10,6 21,4 17,0 6 3 8 5 NO 1016,4 47 0 0,0
15.07.2018 22:00:00 20,8 9,4 15,5 21,4 17,0 7 4 10 5 NNO 1015,9 60 42 0,0
15.07.2018 21:00:00 23,2 9,9 26,3 21,3 16,9 7 4 13 7 N 1015,5 56 60 0,0
15.07.2018 20:00:00 24,8 10,6 31,1 21,1 16,9 11 6 16 9 NNO 1015,3 49 60 0,0
15.07.2018 19:00:00 25,1 10,9 33,3 20,9 17,0 10 6 21 11 NNO 1015,6 39 60 0,0
15.07.2018 18:00:00 25,6 11,4 35,1 20,6 16,9 13 7 22 12 N 1015,8 45 60 0,0
15.07.2018 17:00:00 25,6 11,4 35,7 20,3 16,9 14 7 27 14 N 1016,1 43 60 0,0
15.07.2018 16:00:00 26,0 12,8 34,0 20,0 16,9 14 8 25 13 N 1016,1 47 52 0,0
15.07.2018 15:00:00 27,1 8,5 37,6 19,7 16,9 14 8 26 14 ZZW 1016,0 30 60 0,0
15.07.2018 14:00:00 26,1 9,0 30,3 19,5 16,9 9 5 20 11 ZW 1016,3 45 60 0,0
15.07.2018 13:00:00 25,8 8,7 35,8 19,3 16,9 8 4 14 7 WZW 1016,8 39 60 0,0
15.07.2018 12:00:00 25,1 9,4 34,5 19,3 16,9 3 1 11 6 ZW 1017,0 44 60 0,0
15.07.2018 11:00:00 23,6 10,6 30,2 19,3 16,9 5 3 13 7 O 1017,1 41 60 0,0
15.07.2018 10:00:00 20,7 12,7 27,1 19,4 16,9 6 4 11 6 ONO 1017,4 32 60 0,0
15.07.2018 09:00:00 18,9 12,2 22,6 19,5 16,9 4 2 7 4 ONO 1017,7 37 60 0,0
15.07.2018 08:00:00 14,8 13,7 7,7 19,7 16,9 0 0 8 4 N 1018,0 11 60 0,0
15.07.2018 07:00:00 12,7 11,9 7,6 19,9 16,9 7 4 14 7 ONO 1017,9 9 10 0,0
15.07.2018 06:00:00 12,7 12,4 6,2 20,1 16,9 10 5 13 7 ONO 1017,8 5 0 0,0
15.07.2018 05:00:00 12,8 12,2 6,1 20,3 16,9 9 5 13 7 ONO 1018,1 5 0 0,0
15.07.2018 04:00:00 12,9 12,1 6,5 20,5 16,9 9 5 13 7 ONO 1018,2 7 0 0,0
15.07.2018 03:00:00 12,8 12,0 6,6 20,6 16,9 10 6 13 7 ONO 1018,6 7 0 0,0
15.07.2018 02:00:00 13,2 12,4 7,8 20,8 16,9 11 6 13 7 ONO 1019,1 5 0 0,0
15.07.2018 01:00:00 14,2 12,9 12,7 20,9 16,9 9 5 17 9 NO 1019,4 4,7 0 0,0
15.07.2018 00:00:00 14,9 12,2 13,6 21,0 16,9 10 5 14 8 NO 1019,5 13 0 0,0
14.07.2018 23:00:00 16,4 12,0 15,1 21,1 16,9 9 5 16 9 NO 1019,3 30 3 0,0
14.07.2018 22:00:00 18,5 11,6 17,4 21,1 16,8 11 6 23 13 NNO 1019,0 49 60 0,0
14.07.2018 21:00:00 20,6 11,5 23,1 21,0 16,9 17 9 28 15 NO 1019,0 41 60 0,0
14.07.2018 20:00:00 21,8 11,5 26,5 20,9 16,8 19 10 29 16 NNO 1019,1 40 60 0,0
14.07.2018 19:00:00 23,0 13,2 30,1 20,7 16,8 17 9 35 19 NNO 1019,2 32 60 0,0
14.07.2018 18:00:00 23,2 13,7 31,6 20,4 16,8 20 11 32 17 NNO 1019,4 28 60 0,0
14.07.2018 17:00:00 24,4 13,6 33,6 20,2 16,8 19 10 31 17 NNO 1019,5 20 60 0,0
14.07.2018 16:00:00 24,5 14,3 34,2 19,9 16,9 15 8 30 16 NNO 1019,7 19 60 0,0
14.07.2018 15:00:00 24,1 13,6 34,5 19,7 16,8 17 9 29 16 NNO 1020,2 28 60 0,0
14.07.2018 14:00:00 23,5 14,2 33,9 19,5 16,8 18 10 28 15 NO 1020,7 20 60 0,0
14.07.2018 13:00:00 23,8 14,5 32,8 19,3 16,8 16 9 29 15 NNO 1020,7 22 60 0,0
14.07.2018 12:00:00 23,0 12,3 30,0 19,3 16,8 15 8 25 14 NO 1020,9 19 60 0,0
14.07.2018 11:00:00 21,7 12,8 27,7 19,3 16,8 13 7 22 12 NO 1021,1 9 60 0,0
14.07.2018 10:00:00 20,1 15,3 24,0 19,4 16,8 13 7 18 10 NO 1021,4 8 60 0,0
14.07.2018 09:00:00 17,9 15,9 18,2 19,5 16,8 10 6 17 9 NO 1021,5 6 60 0,0
14.07.2018 08:00:00 16,2 16,0 13,0 19,6 16,8 10 5 16 9 NO 1021,5 3,5 60 0,0
14.07.2018 07:00:00 14,2 14,2 12,5 19,8 16,8 11 6 16 8 NO 1021,1 2,2 3 0,2
14.07.2018 06:00:00 14,1 14,1 12,3 20,0 16,8 10 6 16 8 NO 1021,2 2,2 0 0,0
14.07.2018 05:00:00 13,6 13,6 12,3 20,1 16,8 11 6 16 8 NO 1021,3 1,8 0 0,0
14.07.2018 04:00:00 13,8 13,8 9,0 20,3 16,8 9 5 14 7 NO 1021,7 2,0 0 0,0
14.07.2018 03:00:00 13,6 13,4 8,3 20,5 16,8 8 5 14 8 NO 1022,1 2,0 0 0,2
14.07.2018 02:00:00 14,2 13,9 12,8 20,6 16,8 11 6 14 8 NO 1022,5 2,5 0 0,0
14.07.2018 01:00:00 14,7 14,1 13,3 20,7 16,8 10 6 15 8 NO 1022,7 3,6 0 0,0
14.07.2018 00:00:00 15,2 14,2 14,2 20,8 16,8 11 6 18 10 NO 1022,8 6 0 0,0
13.07.2018 23:00:00 16,0 14,5 15,0 20,8 16,8 13 7 20 11 NNO 1022,4 8 0 0,0
13.07.2018 22:00:00 17,7 13,4 17,0 20,8 16,8 10 5 21 11 NNO 1021,6 17 55 0,0
13.07.2018 21:00:00 19,6 13,1 22,4 20,8 16,8 14 8 28 15 NNO 1021,0 29 60 0,0
13.07.2018 20:00:00 20,6 12,6 25,3 20,6 16,8 17 9 32 17 NNO 1021,0 32 60 0,0
13.07.2018 19:00:00 21,9 12,2 28,8 20,4 16,7 18 10 30 16 NNO 1021,0 28 60 0,0
13.07.2018 18:00:00 23,0 12,3 31,8 20,2 16,8 18 10 29 16 NNO 1021,1 28 60 0,0
13.07.2018 17:00:00 23,8 12,4 33,8 19,9 16,7 17 9 27 14 NNO 1021,4 27 60 0,0
13.07.2018 16:00:00 24,1 12,4 35,2 19,6 16,7 16 9 27 15 NNO 1021,5 25 60 0,0
13.07.2018 15:00:00 24,0 13,5 35,1 19,3 16,7 16 8 24 13 NNO 1021,6 31 60 0,0
13.07.2018 14:00:00 23,9 12,2 34,5 19,1 16,7 12 7 23 12 NNO 1021,6 43 60 0,0
13.07.2018 13:00:00 23,3 12,9 32,6 19,0 16,7 14 8 24 13 NNO 1021,6 20 60 0,0
13.07.2018 12:00:00 22,4 12,1 31,7 18,9 16,7 11 6 20 11 NNO 1021,6 33 60 0,0
13.07.2018 11:00:00 21,4 13,1 28,1 18,9 16,8 9 5 19 10 NO 1021,8 20 60 0,0
13.07.2018 10:00:00 19,5 13,0 25,7 19,0 16,7 10 5 15 8 NNO 1022,0 20 60 0,0
13.07.2018 09:00:00 17,7 13,6 19,2 19,1 16,7 6 3 11 6 NO 1022,1 19 60 0,0
13.07.2018 08:00:00 14,0 14,0 7,6 19,3 16,7 9 5 11 6 NNO 1021,8 9 60 0,0
13.07.2018 07:00:00 10,3 10,3 5,6 19,5 16,7 3 2 5 3 NO 1022,1 3,9 1 0,0
13.07.2018 06:00:00 9,7 9,7 5,7 19,7 16,7 3 2 5 3 ONO 1022,1 6 0 0,0
13.07.2018 05:00:00 11,1 11,1 6,1 19,9 16,7 4 2 7 4 NO 1021,9 6 0 0,0
13.07.2018 04:00:00 12,2 12,2 6,9 20,0 16,7 6 3 9 5 NO 1022,2 6 0 0,0
13.07.2018 03:00:00 12,9 12,9 7,2 20,2 16,7 7 4 8 5 NO 1022,2 6 0 0,0
13.07.2018 02:00:00 13,8 13,6 8,0 20,4 16,7 8 4 10 5 NNO 1022,1 1,6 0 0,0
13.07.2018 01:00:00 14,1 13,8 8,6 20,5 16,7 4 2 10 5 NNO 1022,3 0,8 0 0,0
13.07.2018 00:00:00 15,8 15,3 11,9 20,5 16,7 6 3 15 8 N 1022,1 2,7 0 0,0
12.07.2018 23:00:00 16,6 15,8 15,4 20,6 16,7 9 5 19 10 NNO 1021,8 3,8 0 0,0
12.07.2018 22:00:00 18,0 14,3 17,2 20,6 16,7 10 5 19 10 N 1021,4 13 45 0,0
12.07.2018 21:00:00 19,9 13,1 22,3 20,5 16,7 13 7 23 12 N 1021,2 28 60 0,0
12.07.2018 20:00:00 21,5 12,9 26,5 20,4 16,7 15 8 28 15 NNO 1021,2 41 60 0,0
12.07.2018 19:00:00 22,4 12,1 28,9 20,1 16,7 18 10 30 16 N 1021,0 20 60 0,0
12.07.2018 18:00:00 23,2 12,8 31,2 19,9 16,6 21 11 31 17 NNO 1020,9 29 60 0,0
12.07.2018 17:00:00 23,6 11,3 33,1 19,6 16,7 20 11 32 17 NNO 1021,1 33 60 0,0
12.07.2018 16:00:00 24,1 10,7 33,6 19,3 16,6 18 10 32 17 NNO 1021,1 30 60 0,0
12.07.2018 15:00:00 23,5 10,9 34,0 19,1 16,6 18 10 30 16 NNO 1021,3 27 60 0,0
12.07.2018 14:00:00 23,5 10,9 34,2 18,9 16,6 18 10 36 19 NNO 1021,2 25 60 0,0
12.07.2018 13:00:00 23,8 12,1 34,2 18,7 16,6 16 9 29 15 NNO 1021,2 18 58 0,0
12.07.2018 12:00:00 23,3 13,2 32,7 18,7 16,6 15 8 25 13 NNO 1021,0 20 60 0,0
12.07.2018 11:00:00 22,3 12,8 28,6 18,6 16,6 10 5 19 10 NO 1020,8 23 60 0,0
12.07.2018 10:00:00 20,3 14,0 24,1 18,7 16,6 9 5 14 8 ONO 1020,9 29 60 0,0
12.07.2018 09:00:00 15,6 15,6 13,9 18,8 16,6 6 4 10 5 NO 1021,1 9 58 0,0
12.07.2018 08:00:00 12,7 12,7 10,2 18,9 16,6 5 3 9 5 NO 1021,1 0,2 26 0,0
12.07.2018 07:00:00 11,1 11,1 8,2 19,1 16,6 3 1 11 6 N 1021,0 0,1 0 0,2
12.07.2018 06:00:00 11,7 11,7 9,0 19,2 16,6 3 2 6 4 N 1020,8 0,1 0 0,0
12.07.2018 05:00:00 11,8 11,6 8,5 19,3 16,6 5 3 10 6 NO 1020,9 0,1 0 0,0
12.07.2018 04:00:00 13,0 12,8 11,1 19,6 16,6 9 5 13 7 NO 1020,8 1,3 0 0,0
12.07.2018 03:00:00 13,4 13,1 7,1 19,7 16,6 7 4 13 7 NNO 1021,1 2,2 0 0,0
12.07.2018 02:00:00 12,5 11,6 7,7 19,8 16,6 6 3 10 6 NO 1021,2 4,0 0 0,0
12.07.2018 01:00:00 13,7 12,3 12,2 20,0 16,6 7 4 16 9 NNO 1021,3 9 0 0,0
12.07.2018 00:00:00 14,0 11,3 12,6 20,0 16,6 11 6 16 8 NO 1021,2 19 0 0,0
11.07.2018 23:00:00 15,3 11,3 14,2 20,1 16,6 11 6 19 10 NO 1020,8 19 2 0,0
11.07.2018 22:00:00 17,2 11,0 16,6 20,1 16,6 10 5 28 15 NO 1020,1 45 57 0,0
11.07.2018 21:00:00 19,2 11,2 21,3 20,0 16,6 21 12 32 17 NO 1019,8 52 60 0,0
11.07.2018 20:00:00 21,1 11,4 25,2 19,9 16,6 22 12 36 20 NO 1019,8 38 60 0,0
11.07.2018 19:00:00 21,7 11,4 27,1 19,7 16,6 24 13 37 20 ONO 1019,8 34 60 0,0
11.07.2018 18:00:00 22,3 11,7 29,3 19,5 16,6 26 14 36 20 NO 1020,0 21 60 0,0
11.07.2018 17:00:00 23,6 12,3 27,1 19,2 16,6 22 12 35 19 NO 1020,3 30 53 0,0
11.07.2018 16:00:00 23,4 12,4 28,1 19,0 16,6 21 11 36 20 NO 1020,4 34 41 0,0
11.07.2018 15:00:00 23,9 12,8 27,2 18,9 16,6 20 11 34 18 NO 1020,7 36 41 0,0
11.07.2018 14:00:00 22,4 12,3 26,3 18,7 16,5 19 10 34 19 NNO 1020,8 28 30 0,0
11.07.2018 13:00:00 21,7 12,8 26,6 18,6 16,6 22 12 30 16 ONO 1020,8 40 43 0,0
11.07.2018 12:00:00 21,9 12,2 28,1 18,6 16,5 17 9 29 16 ONO 1021,0 32 60 0,0
11.07.2018 11:00:00 20,4 12,6 24,8 18,6 16,5 16 8 29 15 O 1021,3 20 60 0,0
11.07.2018 10:00:00 18,9 11,9 16,4 18,7 16,5 17 9 30 16 ONO 1021,4 25 60 0,0
11.07.2018 09:00:00 17,1 12,8 13,0 18,9 16,5 16 9 26 14 ONO 1021,4 25 60 0,0
11.07.2018 08:00:00 14,3 12,8 9,2 19,0 16,5 14 7 19 11 ONO 1021,4 18 60 0,0
11.07.2018 07:00:00 11,7 11,4 8,9 19,1 16,5 9 5 14 8 NO 1021,4 13 10 0,2
11.07.2018 06:00:00 11,4 10,8 9,1 19,2 16,5 10 6 16 9 NO 1021,3 14 0 0,0
11.07.2018 05:00:00 11,9 10,8 8,9 19,4 16,5 10 5 15 8 NNO 1021,4 20 0 0,0
11.07.2018 04:00:00 12,3 10,4 9,8 19,5 16,5 9 5 14 7 NNO 1021,6 23 0 0,0
11.07.2018 03:00:00 13,1 11,0 10,1 19,6 16,5 8 4 11 6 NO 1021,6 30 0 0,0
11.07.2018 02:00:00 14,4 11,7 10,6 19,7 16,5 10 5 14 8 ONO 1021,6 37 0 0,0
11.07.2018 01:00:00 15,4 11,8 11,6 19,8 16,5 8 4 13 7 ONO 1021,6 49 0 0,0
11.07.2018 00:00:00 17,0 12,1 13,8 19,8 16,5 10 5 21 11 O 1021,4 58 0 0,0
10.07.2018 23:00:00 18,5 12,5 16,3 19,8 16,5 15 8 23 12 ONO 1021,2 59 0 0,0
10.07.2018 22:00:00 19,8 14,4 18,5 19,8 16,5 13 7 21 11 NO 1020,8 55 60 0,0
10.07.2018 21:00:00 22,1 14,7 22,1 19,8 16,5 13 7 22 12 NO 1020,5 20 60 0,0
10.07.2018 20:00:00 24,0 14,4 25,7 19,7 16,5 11 6 20 11 NNO 1020,3 32 60 0,0
10.07.2018 19:00:00 23,9 15,4 29,8 19,6 16,5 10 5 23 12 NNO 1020,5 39 60 0,0
10.07.2018 18:00:00 24,3 16,0 33,1 19,4 16,5 18 10 26 14 NNW 1020,7 22 60 0,0
10.07.2018 17:00:00 24,7 14,8 35,3 19,2 16,5 13 7 24 13 N 1021,1 23 60 0,0
10.07.2018 16:00:00 25,2 15,2 34,7 19,1 16,5 14 8 26 14 NNW 1021,4 20 60 0,0

tt = temperatuur
td = dauwpunt
tt 5cm = temperatuur 5cm
tt -20cm = temperatuur -20cm
tt -100cm = temperatuur -100cm
ff = windsnelheid
fx = windstoten
dd = windrichting
ppp = luchtdruk
vv = zicht
sd = Zonneschijnduur
rr = neerslag

Weerstations in de omgeving